DAL104 SBGR-KATL

Flight info

Callsign DAL104
Flight time N/A
Altitude 34000
Route GERTU UL304 OPNUS UM417 KONKI UL304 KOSMU UM417 CBC UL304 BODLO Y298 VENDS Y185 MANLE Q89 CULTO DCT LEMKE
Aircraft A333/H-DGVW/C

Departure

Time 2026-05-05 01:17
Airport São Paulo/Guarulhos–Governor André Franco Montoro International Airport (SBGR)

Arrival

Time N/A
Airport Hartsfield Jackson Atlanta International Airport (KATL)
Time Latitude Longitude Altitude Speed Heading
2026-05-05 00:20 -23.42843 -46.47727 2476 ft 0 kts 27°
2026-05-05 01:05 -23.42862 -46.47738 2476 ft 4 kts 28°
2026-05-05 01:05 -23.42885 -46.47752 2476 ft 4 kts 28°
2026-05-05 01:05 -23.42908 -46.47766 2476 ft 4 kts 35°
2026-05-05 01:06 -23.42926 -46.47786 2476 ft 4 kts 70°
2026-05-05 01:06 -23.42930 -46.47813 2476 ft 2 kts 91°
2026-05-05 01:06 -23.42930 -46.47816 2476 ft 1 kts 91°
2026-05-05 01:09 -23.42930 -46.47815 2477 ft 2 kts 91°
2026-05-05 01:09 -23.42928 -46.47760 2476 ft 13 kts 81°
2026-05-05 01:10 -23.42901 -46.47644 2476 ft 17 kts 74°
2026-05-05 01:10 -23.42873 -46.47503 2476 ft 19 kts 99°
2026-05-05 01:10 -23.42893 -46.47466 2476 ft 0 kts 136°
2026-05-05 01:11 -23.42895 -46.47465 2476 ft 1 kts 144°
2026-05-05 01:11 -23.42921 -46.47460 2476 ft 9 kts 168°
2026-05-05 01:11 -23.42989 -46.47423 2476 ft 11 kts 117°
2026-05-05 01:11 -23.42985 -46.47339 2475 ft 16 kts 76°
2026-05-05 01:12 -23.42950 -46.47208 2475 ft 18 kts 74°
2026-05-05 01:12 -23.42918 -46.47086 2475 ft 17 kts 73°
2026-05-05 01:12 -23.42882 -46.46954 2476 ft 19 kts 73°
2026-05-05 01:12 -23.42841 -46.46804 2476 ft 22 kts 73°
2026-05-05 01:13 -23.42795 -46.46632 2475 ft 25 kts 73°
2026-05-05 01:13 -23.42744 -46.46441 2477 ft 28 kts 73°
2026-05-05 01:13 -23.42687 -46.46234 2474 ft 29 kts 73°
2026-05-05 01:13 -23.42633 -46.46034 2478 ft 27 kts 74°
2026-05-05 01:14 -23.42583 -46.45846 2475 ft 25 kts 73°
2026-05-05 01:14 -23.42535 -46.45668 2473 ft 24 kts 73°
2026-05-05 01:14 -23.42490 -46.45502 2476 ft 22 kts 73°
2026-05-05 01:14 -23.42448 -46.45346 2478 ft 21 kts 73°
2026-05-05 01:15 -23.42409 -46.45198 2474 ft 20 kts 74°
2026-05-05 01:15 -23.42410 -46.45107 2476 ft 9 kts 130°
2026-05-05 01:15 -23.42470 -46.45077 2474 ft 11 kts 161°
2026-05-05 01:15 -23.42539 -46.45069 2474 ft 7 kts 209°
2026-05-05 01:16 -23.42551 -46.45089 2479 ft 0 kts 253°
2026-05-05 01:16 -23.42564 -46.45133 2477 ft 28 kts 253°
2026-05-05 01:16 -23.42742 -46.45788 2474 ft 105 kts 254°
2026-05-05 01:16 -23.42900 -46.46375 2477 ft 137 kts 253°
2026-05-05 01:17 -23.43213 -46.47531 2475 ft 181 kts 253°
2026-05-05 01:17 -23.43578 -46.48903 2928 ft 187 kts 255°
2026-05-05 01:17 -23.43948 -46.50216 3690 ft 177 kts 252°
2026-05-05 01:17 -23.44464 -46.51869 4536 ft 172 kts 254°
2026-05-05 01:18 -23.44871 -46.53082 5148 ft 169 kts 253°
2026-05-05 01:18 -23.45275 -46.54285 5663 ft 169 kts 253°
2026-05-05 01:18 -23.45546 -46.55095 6044 ft 167 kts 253°
2026-05-05 01:18 -23.45930 -46.56274 6610 ft 162 kts 257°
2026-05-05 01:19 -23.46176 -46.57489 6984 ft 170 kts 262°
2026-05-05 01:19 -23.46413 -46.58827 7196 ft 190 kts 260°
2026-05-05 01:19 -23.46717 -46.60299 7441 ft 209 kts 258°
2026-05-05 01:19 -23.47090 -46.61915 7673 ft 232 kts 257°
2026-05-05 01:20 -23.47523 -46.63678 7920 ft 257 kts 256°
2026-05-05 01:20 -23.48011 -46.65611 8296 ft 270 kts 256°
2026-05-05 01:20 -23.48528 -46.67634 8819 ft 276 kts 255°
2026-05-05 01:20 -23.49042 -46.69635 9424 ft 279 kts 255°
2026-05-05 01:21 -23.49568 -46.71680 10036 ft 281 kts 254°
2026-05-05 01:21 -23.50105 -46.73773 10393 ft 294 kts 254°
2026-05-05 01:21 -23.50670 -46.75974 10628 ft 309 kts 254°
2026-05-05 01:21 -23.51261 -46.78284 10856 ft 324 kts 254°
2026-05-05 01:22 -23.51881 -46.80701 11001 ft 339 kts 254°
2026-05-05 01:22 -23.52524 -46.83214 11333 ft 348 kts 254°
2026-05-05 01:22 -23.53176 -46.85765 11798 ft 352 kts 254°
2026-05-05 01:22 -23.53833 -46.88349 12281 ft 356 kts 255°
2026-05-05 01:23 -23.54309 -46.90868 12760 ft 359 kts 262°
2026-05-05 01:23 -23.54376 -46.93581 13133 ft 362 kts 274°
2026-05-05 01:23 -23.53902 -46.96277 13225 ft 364 kts 286°
2026-05-05 01:23 -23.52882 -46.98805 13227 ft 367 kts 299°
2026-05-05 01:24 -23.51364 -47.01040 13223 ft 369 kts 311°
2026-05-05 01:24 -23.49417 -47.02873 13225 ft 372 kts 324°
2026-05-05 01:24 -23.47177 -47.04306 13223 ft 374 kts 330°
2026-05-05 01:24 -23.44838 -47.05567 13223 ft 376 kts 333°
2026-05-05 01:25 -23.42456 -47.06742 13223 ft 377 kts 334°
2026-05-05 01:25 -23.40051 -47.07895 13221 ft 377 kts 334°
2026-05-05 01:25 -23.37655 -47.09043 13222 ft 377 kts 334°
2026-05-05 01:25 -23.35256 -47.10207 13223 ft 377 kts 333°
2026-05-05 01:26 -23.32870 -47.11382 13216 ft 377 kts 333°
2026-05-05 01:26 -23.30483 -47.12570 13213 ft 377 kts 333°
2026-05-05 01:26 -23.28105 -47.13763 13213 ft 377 kts 333°
2026-05-05 01:26 -23.26859 -47.14389 13201 ft 377 kts 333°
2026-05-05 01:27 -23.25899 -47.14872 13204 ft 377 kts 333°
2026-05-05 01:27 -23.23513 -47.16073 13352 ft 380 kts 333°
2026-05-05 01:28 -23.21102 -47.17287 13832 ft 383 kts 333°
2026-05-05 01:28 -23.18673 -47.18507 14321 ft 386 kts 333°
2026-05-05 01:28 -23.16262 -47.19717 14764 ft 387 kts 332°
2026-05-05 01:28 -23.13956 -47.20874 15186 ft 389 kts 332°
2026-05-05 01:29 -23.11490 -47.22111 15639 ft 391 kts 332°
2026-05-05 01:29 -23.09013 -47.23353 16079 ft 393 kts 332°
2026-05-05 01:29 -23.06529 -47.24598 16501 ft 395 kts 332°
2026-05-05 01:29 -23.04022 -47.25853 16953 ft 397 kts 332°
2026-05-05 01:30 -23.01511 -47.27110 17368 ft 399 kts 332°
2026-05-05 01:30 -22.98984 -47.28375 17776 ft 401 kts 332°
2026-05-05 01:30 -22.96446 -47.29643 18165 ft 403 kts 331°
2026-05-05 01:30 -22.93883 -47.30923 18558 ft 405 kts 331°
2026-05-05 01:31 -22.91319 -47.32205 18876 ft 408 kts 331°
2026-05-05 01:31 -22.88735 -47.33496 19186 ft 410 kts 331°
2026-05-05 01:31 -22.86135 -47.34794 19498 ft 412 kts 331°
2026-05-05 01:31 -22.83527 -47.36096 19832 ft 414 kts 331°
2026-05-05 01:32 -22.80908 -47.37402 20148 ft 416 kts 331°
2026-05-05 01:32 -22.78266 -47.38720 20448 ft 419 kts 331°
2026-05-05 01:32 -22.75611 -47.40043 20752 ft 421 kts 331°
2026-05-05 01:32 -22.72944 -47.41372 21072 ft 423 kts 331°
2026-05-05 01:33 -22.70261 -47.42708 21372 ft 426 kts 331°
2026-05-05 01:33 -22.67566 -47.44049 21685 ft 428 kts 331°
2026-05-05 01:33 -22.64854 -47.45398 22001 ft 430 kts 331°
2026-05-05 01:33 -22.62121 -47.46757 22334 ft 431 kts 330°
2026-05-05 01:34 -22.59430 -47.48095 22634 ft 434 kts 330°
2026-05-05 01:34 -22.56683 -47.49460 22925 ft 436 kts 330°
2026-05-05 01:34 -22.53921 -47.50832 23230 ft 438 kts 330°
2026-05-05 01:34 -22.51150 -47.52209 23536 ft 440 kts 330°
2026-05-05 01:35 -22.48356 -47.53595 23826 ft 442 kts 330°
2026-05-05 01:35 -22.45556 -47.54986 24074 ft 443 kts 329°
2026-05-05 01:35 -22.42856 -47.56553 24377 ft 439 kts 323°
2026-05-05 01:35 -22.40282 -47.58314 24673 ft 438 kts 322°
2026-05-05 01:36 -22.37740 -47.60144 24922 ft 439 kts 321°
2026-05-05 01:36 -22.35221 -47.62012 25165 ft 440 kts 320°
2026-05-05 01:36 -22.32697 -47.63912 25425 ft 441 kts 320°
2026-05-05 01:36 -22.30178 -47.65814 25687 ft 443 kts 320°
2026-05-05 01:37 -22.27650 -47.67721 25928 ft 444 kts 320°
2026-05-05 01:37 -22.25176 -47.69581 26125 ft 446 kts 320°
2026-05-05 01:37 -22.22563 -47.71540 26400 ft 446 kts 320°
2026-05-05 01:37 -22.20009 -47.73449 26649 ft 447 kts 320°
2026-05-05 01:38 -22.17443 -47.75366 26875 ft 449 kts 320°
2026-05-05 01:38 -22.14869 -47.77285 27118 ft 450 kts 320°
2026-05-05 01:38 -22.12293 -47.79205 27366 ft 451 kts 319°
2026-05-05 01:38 -22.09706 -47.81133 27565 ft 453 kts 319°
2026-05-05 01:39 -22.07109 -47.83068 27785 ft 455 kts 319°
2026-05-05 01:39 -22.04502 -47.85009 28000 ft 456 kts 319°
2026-05-05 01:39 -22.01892 -47.86951 28247 ft 456 kts 319°
2026-05-05 01:39 -21.99275 -47.88897 28484 ft 458 kts 319°
2026-05-05 01:40 -21.96650 -47.90848 28683 ft 459 kts 319°
2026-05-05 01:40 -21.94016 -47.92807 28876 ft 460 kts 319°
2026-05-05 01:40 -21.91380 -47.94765 29104 ft 461 kts 319°
2026-05-05 01:40 -21.88738 -47.96727 29301 ft 462 kts 319°
2026-05-05 01:41 -21.86083 -47.98698 29510 ft 464 kts 319°
2026-05-05 01:41 -21.83459 -48.00645 29699 ft 465 kts 319°
2026-05-05 01:41 -21.80794 -48.02621 29872 ft 466 kts 319°
2026-05-05 01:41 -21.78126 -48.04610 30040 ft 467 kts 319°
2026-05-05 01:42 -21.75463 -48.06626 30224 ft 468 kts 318°
2026-05-05 01:42 -21.72808 -48.08653 30376 ft 469 kts 318°
2026-05-05 01:42 -21.70146 -48.10691 30532 ft 470 kts 318°
2026-05-05 01:42 -21.67482 -48.12730 30741 ft 469 kts 318°
2026-05-05 01:43 -21.64827 -48.14759 30964 ft 468 kts 318°
2026-05-05 01:43 -21.62170 -48.16787 31198 ft 468 kts 318°
2026-05-05 01:43 -21.59519 -48.18808 31392 ft 467 kts 318°
2026-05-05 01:43 -21.56870 -48.20825 31615 ft 467 kts 318°
2026-05-05 01:44 -21.54223 -48.22840 31821 ft 466 kts 318°
2026-05-05 01:44 -21.51573 -48.24856 31999 ft 467 kts 318°
2026-05-05 01:44 -21.48925 -48.26870 32225 ft 466 kts 318°
2026-05-05 01:44 -21.46280 -48.28880 32416 ft 466 kts 318°
2026-05-05 01:45 -21.43636 -48.30888 32630 ft 465 kts 318°
2026-05-05 01:45 -21.40995 -48.32893 32815 ft 465 kts 318°
2026-05-05 01:45 -21.38355 -48.34897 33011 ft 465 kts 318°
2026-05-05 01:45 -21.35720 -48.36896 33211 ft 464 kts 318°
2026-05-05 01:46 -21.33084 -48.38895 33396 ft 464 kts 318°
2026-05-05 01:46 -21.30482 -48.40867 33563 ft 464 kts 318°
2026-05-05 01:46 -21.27851 -48.42861 33734 ft 463 kts 318°
2026-05-05 01:46 -21.25221 -48.44852 33892 ft 463 kts 318°
2026-05-05 01:47 -21.22583 -48.46850 34050 ft 464 kts 318°
2026-05-05 01:47 -21.19947 -48.48846 34128 ft 465 kts 318°
2026-05-05 01:47 -21.14620 -48.52879 34128 ft 472 kts 318°
2026-05-05 01:48 -21.09213 -48.56967 34126 ft 479 kts 318°
2026-05-05 01:48 -21.03739 -48.61098 34114 ft 483 kts 319°
2026-05-05 01:49 -20.98247 -48.65234 34123 ft 483 kts 319°
2026-05-05 01:49 -20.92752 -48.69371 34124 ft 483 kts 319°
2026-05-05 01:50 -20.87254 -48.73509 34124 ft 483 kts 319°
2026-05-05 01:50 -20.81747 -48.77650 34119 ft 483 kts 319°
2026-05-05 01:51 -20.76246 -48.81783 34117 ft 484 kts 319°
2026-05-05 01:51 -20.70741 -48.85915 34116 ft 484 kts 319°
2026-05-05 01:52 -20.65228 -48.90048 34116 ft 484 kts 319°
2026-05-05 01:52 -20.59720 -48.94175 34113 ft 484 kts 319°
2026-05-05 01:53 -20.54202 -48.98304 34113 ft 484 kts 319°
2026-05-05 01:53 -20.48684 -49.02430 34113 ft 484 kts 319°
2026-05-05 01:54 -20.43202 -49.06527 34095 ft 484 kts 319°
2026-05-05 01:54 -20.37675 -49.10653 34106 ft 486 kts 319°
2026-05-05 01:55 -20.32136 -49.14785 34108 ft 487 kts 319°
2026-05-05 01:55 -20.26580 -49.18925 34108 ft 487 kts 319°
2026-05-05 01:56 -20.21028 -49.23057 34099 ft 487 kts 319°
2026-05-05 01:56 -20.15471 -49.27190 34102 ft 487 kts 319°
2026-05-05 01:57 -20.09908 -49.31324 34105 ft 488 kts 319°
2026-05-05 01:57 -20.04342 -49.35457 34105 ft 488 kts 319°
2026-05-05 01:58 -19.98767 -49.39593 34104 ft 489 kts 319°
2026-05-05 01:58 -19.93221 -49.43704 34102 ft 489 kts 319°
2026-05-05 01:59 -19.87634 -49.47841 34104 ft 490 kts 319°
2026-05-05 01:59 -19.82042 -49.51978 34108 ft 490 kts 319°
2026-05-05 02:00 -19.76454 -49.56110 34108 ft 490 kts 319°
2026-05-05 02:00 -19.70851 -49.60249 34110 ft 491 kts 319°
2026-05-05 02:01 -19.65241 -49.64387 34103 ft 491 kts 319°
2026-05-05 02:01 -19.59636 -49.68520 34105 ft 491 kts 319°
2026-05-05 02:02 -19.54017 -49.72660 34103 ft 492 kts 319°
2026-05-05 02:02 -19.48382 -49.76808 34104 ft 494 kts 319°
2026-05-05 02:03 -19.42734 -49.80961 34098 ft 494 kts 319°
2026-05-05 02:03 -19.37086 -49.85111 34078 ft 494 kts 319°
2026-05-05 02:04 -19.31420 -49.89272 34099 ft 497 kts 319°
2026-05-05 02:04 -19.25743 -49.93436 34100 ft 497 kts 319°
2026-05-05 02:05 -19.20051 -49.97606 34093 ft 497 kts 319°
2026-05-05 02:05 -19.14396 -50.01748 34076 ft 499 kts 319°
2026-05-05 02:06 -19.08677 -50.05934 34092 ft 501 kts 319°
2026-05-05 02:06 -19.02948 -50.10121 34087 ft 501 kts 319°
2026-05-05 02:07 -18.97215 -50.14308 34086 ft 501 kts 319°
2026-05-05 02:07 -18.91484 -50.18491 34083 ft 501 kts 319°
2026-05-05 02:08 -18.85736 -50.22684 34078 ft 503 kts 318°
2026-05-05 02:08 -18.79967 -50.26888 34077 ft 504 kts 318°
2026-05-05 02:09 -18.75173 -50.30376 34095 ft 504 kts 318°
2026-05-05 02:09 -18.69399 -50.34575 34081 ft 504 kts 318°
2026-05-05 02:10 -18.63616 -50.38780 34083 ft 506 kts 318°
2026-05-05 02:10 -18.57824 -50.42986 34076 ft 506 kts 318°
2026-05-05 02:11 -18.52025 -50.47194 34081 ft 506 kts 318°
2026-05-05 02:11 -18.46228 -50.51395 34088 ft 506 kts 318°
2026-05-05 02:12 -18.37504 -50.57709 34090 ft 508 kts 318°
2026-05-05 02:13 -18.31686 -50.61912 34095 ft 508 kts 318°
2026-05-05 02:13 -18.25860 -50.66120 34077 ft 508 kts 317°
2026-05-05 02:14 -18.20073 -50.70298 34095 ft 508 kts 317°
2026-05-05 02:14 -18.14244 -50.74502 34096 ft 508 kts 317°
2026-05-05 02:15 -18.08416 -50.78702 34091 ft 508 kts 317°
2026-05-05 02:15 -18.02582 -50.82901 34084 ft 508 kts 317°
2026-05-05 02:16 -17.96743 -50.87102 34096 ft 509 kts 317°
2026-05-05 02:16 -17.90896 -50.91304 34095 ft 509 kts 317°
2026-05-05 02:17 -17.85055 -50.95498 34097 ft 509 kts 318°
2026-05-05 02:17 -17.79209 -50.99689 34086 ft 509 kts 318°
2026-05-05 02:18 -17.73357 -51.03882 34096 ft 510 kts 318°
2026-05-05 02:18 -17.67499 -51.08075 34102 ft 510 kts 318°
2026-05-05 02:19 -17.61641 -51.12264 34104 ft 510 kts 318°
2026-05-05 02:19 -17.55782 -51.16451 34104 ft 510 kts 318°
2026-05-05 02:20 -17.49920 -51.20638 34101 ft 510 kts 318°
2026-05-05 02:20 -17.44099 -51.24791 34100 ft 510 kts 318°
2026-05-05 02:21 -17.38236 -51.28972 34105 ft 510 kts 318°
2026-05-05 02:21 -17.32376 -51.33153 34098 ft 510 kts 318°
2026-05-05 02:22 -17.26524 -51.37332 34105 ft 509 kts 318°
2026-05-05 02:22 -17.20678 -51.41502 34103 ft 509 kts 318°
2026-05-05 02:23 -17.14837 -51.45666 34094 ft 508 kts 318°
2026-05-05 02:23 -17.08990 -51.49831 34102 ft 509 kts 318°
2026-05-05 02:24 -17.03135 -51.53999 34084 ft 510 kts 318°
2026-05-05 02:24 -16.97274 -51.58167 34099 ft 509 kts 319°
2026-05-05 02:25 -16.91422 -51.62323 34090 ft 508 kts 319°
2026-05-05 02:25 -16.85582 -51.66470 34081 ft 508 kts 319°
2026-05-05 02:26 -16.79770 -51.70593 34083 ft 509 kts 319°
2026-05-05 02:26 -16.73904 -51.74746 34072 ft 509 kts 319°
2026-05-05 02:27 -16.68047 -51.78887 34082 ft 509 kts 319°
2026-05-05 02:27 -16.62182 -51.83032 34069 ft 509 kts 319°
2026-05-05 02:28 -16.56324 -51.87170 34065 ft 509 kts 319°
2026-05-05 02:28 -16.50462 -51.91308 34073 ft 509 kts 319°
2026-05-05 02:29 -16.44601 -51.95442 34061 ft 509 kts 319°
2026-05-05 02:29 -16.38738 -51.99573 34055 ft 509 kts 320°
2026-05-05 02:30 -16.32870 -52.03706 34059 ft 509 kts 320°
2026-05-05 02:30 -16.26984 -52.07807 34053 ft 509 kts 321°
2026-05-05 02:31 -16.21045 -52.11815 34055 ft 509 kts 321°
2026-05-05 02:31 -16.15094 -52.15807 34047 ft 509 kts 321°
2026-05-05 02:32 -16.09151 -52.19802 34053 ft 509 kts 321°
2026-05-05 02:32 -16.03246 -52.23778 34061 ft 509 kts 321°
2026-05-05 02:33 -15.97305 -52.27778 34069 ft 509 kts 321°
2026-05-05 02:33 -15.91361 -52.31775 34077 ft 508 kts 322°
2026-05-05 02:34 -15.85431 -52.35762 34076 ft 507 kts 322°
2026-05-05 02:34 -15.79505 -52.39742 34073 ft 507 kts 322°
2026-05-05 02:35 -15.73578 -52.43720 34073 ft 507 kts 322°
2026-05-05 02:35 -15.67650 -52.47696 34059 ft 507 kts 322°
2026-05-05 02:36 -15.61718 -52.51671 34047 ft 508 kts 323°
2026-05-05 02:36 -15.55790 -52.55642 34054 ft 507 kts 323°
2026-05-05 02:37 -15.49870 -52.59604 34056 ft 506 kts 323°
2026-05-05 02:37 -15.43945 -52.63567 34056 ft 506 kts 323°
2026-05-05 02:38 -15.38027 -52.67523 34047 ft 507 kts 323°
2026-05-05 02:38 -15.32138 -52.71457 34048 ft 507 kts 323°
2026-05-05 02:39 -15.26204 -52.75418 34047 ft 507 kts 323°
2026-05-05 02:39 -15.20280 -52.79369 34043 ft 506 kts 323°
2026-05-05 02:40 -15.14357 -52.83317 34044 ft 506 kts 323°
2026-05-05 02:40 -15.08438 -52.87260 34037 ft 506 kts 323°
2026-05-05 02:41 -15.02516 -52.91202 34036 ft 506 kts 323°
2026-05-05 02:41 -14.96593 -52.95142 34037 ft 506 kts 323°
2026-05-05 02:42 -14.90668 -52.99081 34035 ft 506 kts 324°
2026-05-05 02:42 -14.84746 -53.03015 34034 ft 505 kts 324°
2026-05-05 02:43 -14.78847 -53.06931 34036 ft 504 kts 324°
2026-05-05 02:43 -14.72950 -53.10844 34037 ft 504 kts 324°
2026-05-05 02:44 -14.66948 -53.14599 34034 ft 505 kts 327°
2026-05-05 02:44 -14.60816 -53.18151 34038 ft 505 kts 328°
2026-05-05 02:45 -14.54685 -53.21679 34036 ft 504 kts 327°
2026-05-05 02:45 -14.48574 -53.25227 34032 ft 504 kts 327°
2026-05-05 02:46 -14.42469 -53.28790 34037 ft 503 kts 327°
2026-05-05 02:46 -14.36422 -53.32321 34033 ft 503 kts 327°
2026-05-05 02:47 -14.30343 -53.35868 34036 ft 502 kts 327°
2026-05-05 02:47 -14.24263 -53.39408 34034 ft 502 kts 328°
2026-05-05 02:48 -14.18180 -53.42941 34034 ft 502 kts 328°
2026-05-05 02:48 -14.12092 -53.46474 34032 ft 502 kts 328°
2026-05-05 02:49 -14.06014 -53.50000 34030 ft 501 kts 328°
2026-05-05 02:49 -13.99942 -53.53520 34032 ft 501 kts 328°
2026-05-05 02:50 -13.93870 -53.57039 34033 ft 501 kts 328°
2026-05-05 02:50 -13.87803 -53.60558 34034 ft 501 kts 328°
2026-05-05 02:51 -13.81775 -53.64055 34035 ft 501 kts 328°
2026-05-05 02:51 -13.75699 -53.67579 34033 ft 501 kts 328°
2026-05-05 02:52 -13.69626 -53.71098 34034 ft 501 kts 328°
2026-05-05 02:52 -13.63545 -53.74619 34033 ft 501 kts 328°
2026-05-05 02:53 -13.57475 -53.78132 34030 ft 501 kts 328°
2026-05-05 02:53 -13.51396 -53.81648 34033 ft 501 kts 328°
2026-05-05 02:54 -13.45324 -53.85158 34032 ft 501 kts 328°
2026-05-05 02:54 -13.39285 -53.88648 34034 ft 501 kts 328°
2026-05-05 02:55 -13.33208 -53.92157 34029 ft 501 kts 328°
2026-05-05 02:55 -13.27127 -53.95665 34031 ft 502 kts 328°
2026-05-05 02:56 -13.21040 -53.99176 34032 ft 502 kts 328°
2026-05-05 02:56 -13.14965 -54.02677 34032 ft 501 kts 328°
2026-05-05 02:57 -13.08879 -54.06183 34025 ft 500 kts 328°
2026-05-05 02:57 -13.02812 -54.09676 34026 ft 501 kts 328°
2026-05-05 02:58 -12.96730 -54.13176 34027 ft 501 kts 328°
2026-05-05 02:58 -12.90655 -54.16667 34019 ft 501 kts 328°
2026-05-05 02:59 -12.84573 -54.20160 34021 ft 501 kts 328°
2026-05-05 02:59 -12.78493 -54.23649 34019 ft 501 kts 328°
2026-05-05 03:00 -12.72414 -54.27136 34022 ft 500 kts 328°
2026-05-05 03:00 -12.66387 -54.30591 34023 ft 500 kts 328°
2026-05-05 03:01 -12.60312 -54.34073 34022 ft 500 kts 328°
2026-05-05 03:01 -12.54241 -54.37550 34020 ft 500 kts 328°
2026-05-05 03:02 -12.48172 -54.41025 34021 ft 500 kts 328°
2026-05-05 03:02 -12.42108 -54.44495 34020 ft 500 kts 329°
2026-05-05 03:03 -12.36032 -54.47970 34016 ft 500 kts 329°
2026-05-05 03:03 -12.29965 -54.51438 34017 ft 500 kts 329°
2026-05-05 03:04 -12.23900 -54.54903 34016 ft 499 kts 329°
2026-05-05 03:04 -12.18851 -54.57787 34019 ft 500 kts 329°
2026-05-05 03:05 -12.11748 -54.61841 34018 ft 501 kts 329°
2026-05-05 03:05 -12.05702 -54.65290 34018 ft 501 kts 329°
2026-05-05 03:06 -12.00606 -54.68196 34020 ft 501 kts 329°
2026-05-05 03:06 -11.94558 -54.71642 34018 ft 501 kts 329°
2026-05-05 03:07 -11.88464 -54.75114 34018 ft 502 kts 329°
2026-05-05 03:07 -11.81342 -54.79168 34018 ft 501 kts 329°
2026-05-05 03:08 -11.75247 -54.82637 34018 ft 501 kts 329°
2026-05-05 03:08 -11.70188 -54.85514 34018 ft 501 kts 329°
2026-05-05 03:09 -11.64085 -54.88984 34016 ft 503 kts 329°
2026-05-05 03:09 -11.56980 -54.93020 34018 ft 503 kts 329°
2026-05-05 03:10 -11.51860 -54.95928 34021 ft 503 kts 329°
2026-05-05 03:10 -11.45740 -54.99401 34017 ft 503 kts 329°
2026-05-05 03:11 -11.39664 -55.02848 34016 ft 503 kts 330°
2026-05-05 03:11 -11.33559 -55.06310 34021 ft 502 kts 330°
2026-05-05 03:12 -11.27450 -55.09772 34019 ft 502 kts 330°
2026-05-05 03:12 -11.21347 -55.13230 34026 ft 502 kts 330°
2026-05-05 03:13 -11.15238 -55.16688 34020 ft 502 kts 330°
2026-05-05 03:13 -11.09128 -55.20147 34028 ft 503 kts 330°
2026-05-05 03:14 -11.03010 -55.23607 34031 ft 503 kts 330°
2026-05-05 03:14 -10.96891 -55.27065 34024 ft 503 kts 330°
2026-05-05 03:15 -10.90773 -55.30520 34029 ft 503 kts 330°
2026-05-05 03:15 -10.84649 -55.33977 34030 ft 503 kts 330°
2026-05-05 03:16 -10.78528 -55.37431 34029 ft 504 kts 330°
2026-05-05 03:16 -10.72402 -55.40887 34029 ft 504 kts 330°
2026-05-05 03:17 -10.66276 -55.44341 34031 ft 504 kts 330°
2026-05-05 03:17 -10.60144 -55.47797 34029 ft 504 kts 330°
2026-05-05 03:18 -10.54017 -55.51249 34032 ft 504 kts 330°
2026-05-05 03:18 -10.47927 -55.54678 34028 ft 504 kts 330°
2026-05-05 03:19 -10.38724 -55.59856 34028 ft 504 kts 330°
2026-05-05 03:19 -10.32586 -55.63308 34024 ft 504 kts 330°
2026-05-05 03:20 -10.26447 -55.66759 34026 ft 504 kts 330°
2026-05-05 03:20 -10.20317 -55.70203 34026 ft 503 kts 330°
2026-05-05 03:21 -10.14192 -55.73643 34027 ft 503 kts 330°
2026-05-05 03:21 -10.08058 -55.77086 34025 ft 503 kts 330°
2026-05-05 03:22 -10.01931 -55.80525 34023 ft 504 kts 330°
2026-05-05 03:22 -9.95789 -55.83969 34026 ft 505 kts 330°
2026-05-05 03:23 -9.89646 -55.87413 34023 ft 505 kts 330°
2026-05-05 03:23 -9.83504 -55.90856 34026 ft 505 kts 330°
2026-05-05 03:24 -9.77354 -55.94301 34023 ft 505 kts 330°
2026-05-05 03:24 -9.71209 -55.97741 34023 ft 505 kts 330°
2026-05-05 03:25 -9.64987 -56.01039 34023 ft 505 kts 333°
2026-05-05 03:25 -9.58643 -56.04110 34019 ft 505 kts 334°
2026-05-05 03:26 -9.52294 -56.07151 34020 ft 505 kts 334°
2026-05-05 03:26 -9.45958 -56.10216 34021 ft 505 kts 334°
2026-05-05 03:27 -9.39614 -56.13305 34017 ft 506 kts 334°
2026-05-05 03:27 -9.33300 -56.16383 34018 ft 507 kts 334°
2026-05-05 03:28 -9.26895 -56.19503 34018 ft 508 kts 334°
2026-05-05 03:28 -9.20581 -56.22577 34018 ft 507 kts 334°
2026-05-05 03:29 -9.14210 -56.25677 34018 ft 507 kts 334°
2026-05-05 03:29 -9.07844 -56.28773 34018 ft 508 kts 334°
2026-05-05 03:30 -9.01468 -56.31873 34013 ft 509 kts 334°
2026-05-05 03:30 -8.95085 -56.34975 34015 ft 510 kts 334°
2026-05-05 03:31 -8.88684 -56.38085 34013 ft 510 kts 334°
2026-05-05 03:31 -8.82286 -56.41191 34019 ft 510 kts 334°
2026-05-05 03:32 -8.75891 -56.44296 34015 ft 510 kts 334°
2026-05-05 03:32 -8.69499 -56.47397 34023 ft 510 kts 334°
2026-05-05 03:33 -8.63110 -56.50496 34024 ft 510 kts 334°
2026-05-05 03:33 -8.56713 -56.53598 34023 ft 510 kts 334°
2026-05-05 03:34 -8.50325 -56.56694 34025 ft 510 kts 334°
2026-05-05 03:34 -8.43964 -56.59775 34029 ft 511 kts 334°
2026-05-05 03:35 -8.37549 -56.62882 34029 ft 511 kts 334°
2026-05-05 03:35 -8.31135 -56.65987 34029 ft 511 kts 334°
2026-05-05 03:36 -8.24716 -56.69094 34028 ft 511 kts 334°
2026-05-05 03:36 -8.18307 -56.72195 34028 ft 510 kts 334°
2026-05-05 03:37 -8.11908 -56.75289 34026 ft 510 kts 334°
2026-05-05 03:37 -8.05518 -56.78379 34025 ft 510 kts 334°
2026-05-05 03:38 -7.99120 -56.81471 34023 ft 510 kts 334°
2026-05-05 03:38 -7.92727 -56.84559 34020 ft 508 kts 334°
2026-05-05 03:39 -7.86376 -56.87626 34023 ft 503 kts 334°
2026-05-05 03:39 -7.80083 -56.90665 34023 ft 501 kts 334°
2026-05-05 03:40 -7.73796 -56.93699 34024 ft 501 kts 334°
2026-05-05 03:40 -7.67508 -56.96733 34022 ft 501 kts 334°
2026-05-05 03:41 -7.61219 -56.99766 34018 ft 501 kts 334°
2026-05-05 03:41 -7.54924 -57.02801 34018 ft 501 kts 334°
2026-05-05 03:42 -7.48633 -57.05833 34015 ft 501 kts 334°
2026-05-05 03:42 -7.42346 -57.08862 34016 ft 501 kts 334°
2026-05-05 03:43 -7.36052 -57.11894 34013 ft 501 kts 334°
2026-05-05 03:43 -7.29763 -57.14922 34012 ft 501 kts 334°
2026-05-05 03:44 -7.23469 -57.17952 34012 ft 501 kts 334°
2026-05-05 03:44 -7.17177 -57.20980 34012 ft 501 kts 334°
2026-05-05 03:45 -7.10885 -57.24007 34012 ft 501 kts 334°
2026-05-05 03:45 -7.04592 -57.27033 34012 ft 501 kts 334°
2026-05-05 03:46 -6.98309 -57.30054 34006 ft 499 kts 334°
2026-05-05 03:46 -6.92055 -57.33060 34006 ft 498 kts 334°
2026-05-05 03:47 -6.85806 -57.36063 34006 ft 498 kts 334°
2026-05-05 03:47 -6.79555 -57.39065 34006 ft 498 kts 334°
2026-05-05 03:48 -6.73350 -57.42045 34005 ft 498 kts 334°
2026-05-05 03:48 -6.67098 -57.45047 34004 ft 498 kts 334°
2026-05-05 03:49 -6.60846 -57.48048 34004 ft 498 kts 334°
2026-05-05 03:49 -6.54592 -57.51048 34003 ft 498 kts 334°
2026-05-05 03:50 -6.48340 -57.54047 34005 ft 498 kts 334°
2026-05-05 03:50 -6.42085 -57.57047 34005 ft 498 kts 334°
2026-05-05 03:51 -6.35819 -57.60051 34001 ft 501 kts 334°
2026-05-05 03:51 -6.29520 -57.63070 34002 ft 501 kts 334°
2026-05-05 03:52 -6.23224 -57.66086 34000 ft 502 kts 334°
2026-05-05 03:52 -6.16913 -57.69109 34001 ft 503 kts 334°
2026-05-05 03:53 -6.10604 -57.72131 34004 ft 503 kts 334°
2026-05-05 03:53 -6.04318 -57.75140 34000 ft 504 kts 334°
2026-05-05 03:54 -5.97981 -57.78174 34001 ft 505 kts 335°
2026-05-05 03:54 -5.91638 -57.81209 34002 ft 505 kts 335°
2026-05-05 03:55 -5.85298 -57.84242 34002 ft 505 kts 335°
2026-05-05 03:55 -5.78958 -57.87274 34004 ft 504 kts 335°
2026-05-05 03:56 -5.73694 -57.89791 34001 ft 504 kts 335°
2026-05-05 03:56 -5.66299 -57.93326 34002 ft 504 kts 335°
2026-05-05 03:57 -5.61022 -57.95849 34003 ft 506 kts 335°
2026-05-05 03:57 -5.54657 -57.98890 34002 ft 507 kts 335°
2026-05-05 03:58 -5.48298 -58.01928 34004 ft 506 kts 335°
2026-05-05 03:58 -5.41935 -58.04967 33998 ft 506 kts 335°
2026-05-05 03:59 -5.35578 -58.08003 33998 ft 506 kts 335°
2026-05-05 03:59 -5.29219 -58.11038 33999 ft 506 kts 335°
2026-05-05 04:00 -5.22857 -58.14075 34001 ft 506 kts 335°
2026-05-05 04:00 -5.16496 -58.17109 33998 ft 506 kts 335°
2026-05-05 04:01 -5.10143 -58.20138 33993 ft 505 kts 335°
2026-05-05 04:01 -5.03786 -58.23167 33993 ft 507 kts 335°
2026-05-05 04:02 -4.97461 -58.26181 33990 ft 507 kts 335°
2026-05-05 04:02 -4.91086 -58.29219 33990 ft 507 kts 335°
2026-05-05 04:03 -4.84717 -58.32253 33992 ft 507 kts 335°
2026-05-05 04:03 -4.78367 -58.35278 33990 ft 504 kts 335°
2026-05-05 04:04 -4.72029 -58.38296 33988 ft 504 kts 335°
2026-05-05 04:04 -4.65691 -58.41313 33985 ft 504 kts 335°
2026-05-05 04:05 -4.59355 -58.44328 33985 ft 504 kts 335°
2026-05-05 04:05 -4.53018 -58.47344 33986 ft 504 kts 335°
2026-05-05 04:06 -4.46681 -58.50359 33987 ft 505 kts 335°
2026-05-05 04:06 -4.40330 -58.53380 33985 ft 505 kts 335°
2026-05-05 04:07 -4.33942 -58.56303 33985 ft 505 kts 337°
2026-05-05 04:07 -4.27514 -58.59135 33985 ft 505 kts 337°
2026-05-05 04:08 -4.21089 -58.61961 33982 ft 504 kts 337°
2026-05-05 04:08 -4.14680 -58.64794 33982 ft 502 kts 337°
2026-05-05 04:09 -4.08288 -58.67628 33982 ft 502 kts 337°
2026-05-05 04:09 -4.01940 -58.70442 33979 ft 502 kts 337°
2026-05-05 04:10 -3.95548 -58.73276 33982 ft 502 kts 337°
2026-05-05 04:10 -3.89159 -58.76107 33979 ft 502 kts 337°
2026-05-05 04:11 -3.82770 -58.78938 33977 ft 502 kts 337°
2026-05-05 04:11 -3.76375 -58.81771 33977 ft 502 kts 337°
2026-05-05 04:12 -3.69993 -58.84597 33977 ft 502 kts 337°
2026-05-05 04:12 -3.63604 -58.87427 33977 ft 502 kts 337°
2026-05-05 04:13 -3.57215 -58.90257 33977 ft 502 kts 337°
2026-05-05 04:13 -3.50824 -58.93088 33977 ft 502 kts 337°
2026-05-05 04:14 -3.44434 -58.95918 33977 ft 502 kts 337°
2026-05-05 04:14 -3.38048 -58.98746 33977 ft 502 kts 337°
2026-05-05 04:15 -3.31661 -59.01574 33977 ft 502 kts 337°
2026-05-05 04:15 -3.25319 -59.04523 33966 ft 502 kts 334°
2026-05-05 04:16 -3.19126 -59.07773 33974 ft 503 kts 333°
2026-05-05 04:16 -3.12966 -59.11074 33974 ft 503 kts 333°